Simultaneous Nadir Overpasses (SNOs) Predictions

Prediction of SNOs between AQUA and TERRA Satellite Orbit:

Table of predicted SNOs for the next 14.0 days since TLE Epoch: 12/15/2022
Index Date (AQUA) Time (AQUA) Lat,Lon (AQUA) SZA (AQUA ) Date (TERRA) Time (TERRA) Lat,Lon (TERRA) SZA (TERRA ) Distance(km) Time Diff (sec)
1 12/29/2022 06:31:15 73.01, 79.79 96.16 12/29/2022 06:32:20 72.94, 82.47 96.07 87.72 65
2 12/29/2022 07:20:39 -72.94,-112.44 83.92 12/29/2022 07:21:45 -72.88,-110.00 84.00 80.18 66
3 12/29/2022 08:10:02 72.78, 55.52 95.92 12/29/2022 08:11:10 72.71, 57.33 95.83 60.18 68
4 12/29/2022 08:59:26 -72.72,-136.71 84.15 12/29/2022 09:00:34 -72.70,-135.03 84.18 55.48 68
5 12/29/2022 09:48:50 72.60, 31.15 95.73 12/29/2022 09:49:59 72.53, 32.30 95.65 39.34 69
6 12/29/2022 10:38:14 -72.54,-161.09 84.34 12/29/2022 10:39:24 -72.46,-160.16 84.42 32.16 70
7 12/29/2022 11:27:37 72.37, 6.87 95.49 12/29/2022 11:28:48 72.35, 7.28 95.46 14.23 71
8 12/29/2022 12:17:01 -72.31, 174.63 84.58 12/29/2022 12:18:13 -72.28, 174.82 84.61 7.24 72
9 12/29/2022 13:06:26 72.25, -17.62 95.36 12/29/2022 13:07:36 72.22, -17.64 95.33 3.24 70
10 12/29/2022 13:55:51 -72.24, 150.04 84.65 12/29/2022 13:56:59 -72.26, 150.09 84.63 3.27 68
11 12/29/2022 14:45:17 72.23, -42.30 95.34 12/29/2022 14:46:21 72.25, -42.27 95.36 2.61 64
12 12/29/2022 15:34:42 -72.22, 125.36 84.67 12/29/2022 15:35:45 -72.24, 125.37 84.66 2.36 63
13 12/29/2022 16:24:08 72.21, -66.98 95.32 12/29/2022 16:25:07 72.23, -67.00 95.33 2.15 59
14 12/29/2022 17:13:33 -72.20, 100.68 84.70 12/29/2022 17:14:31 -72.22, 100.64 84.68 2.41 58
15 12/29/2022 18:02:59 72.19, -91.66 95.30 12/29/2022 18:03:53 72.21, -91.73 95.31 2.80 54
16 12/29/2022 18:52:24 -72.18, 76.00 84.72 12/29/2022 18:53:17 -72.20, 75.91 84.71 3.37 53
17 12/29/2022 19:41:51 72.23,-116.44 95.33 12/29/2022 19:42:38 72.24,-116.36 95.34 2.98 47
18 12/29/2022 20:31:16 -72.22, 51.22 84.69 12/29/2022 20:32:02 -72.23, 51.28 84.68 2.29 46



Historial Predications of SNOs between AQUA and TERRA
